DNO575 FGSL-GCFV

Flight info

Callsign DNO575
Flight time 4h 57m
Altitude 24000
Route DLA A604 KOKAM/N0494F360 UQ300 LAG UR984 OG UR866 SOLMA/N0488F380 UT365 MIYEC N728 KEMUL Y601 LAY
Aircraft B77W/H-SDE1E2E3FGHIJ2J3J4J5M1RWXY/LB1D1

Departure

Time 2026-04-28 16:19
Airport Malabo International Airport (FGSL)

Arrival

Time 2026-04-28 21:16
Airport Fuerteventura Airport (GCFV)
Time Latitude Longitude Altitude Speed Heading
2026-04-28 16:13 3.75109 8.70929 49 ft 0 kts 136°
2026-04-28 16:13 3.75108 8.70930 49 ft 1 kts 136°
2026-04-28 16:13 3.75193 8.70971 38 ft 11 kts 302°
2026-04-28 16:14 3.75259 8.70891 41 ft 8 kts
2026-04-28 16:14 3.75374 8.70970 40 ft 14 kts 40°
2026-04-28 16:15 3.75524 8.71098 42 ft 14 kts 40°
2026-04-28 16:15 3.75597 8.71164 38 ft 14 kts 44°
2026-04-28 16:15 3.75676 8.71242 46 ft 18 kts 45°
2026-04-28 16:16 3.75875 8.71437 47 ft 21 kts 42°
2026-04-28 16:16 3.75947 8.71501 52 ft 21 kts 41°
2026-04-28 16:17 3.76171 8.71686 57 ft 21 kts 41°
2026-04-28 16:17 3.76280 8.71782 64 ft 21 kts 42°
2026-04-28 16:17 3.76376 8.71867 70 ft 13 kts 34°
2026-04-28 16:17 3.76457 8.71846 61 ft 13 kts 311°
2026-04-28 16:18 3.76491 8.71760 66 ft 8 kts 282°
2026-04-28 16:18 3.76472 8.71710 62 ft 7 kts 236°
2026-04-28 16:18 3.76458 8.71697 66 ft 0 kts 221°
2026-04-28 16:19 3.76350 8.71602 54 ft 58 kts 221°
2026-04-28 16:19 3.75866 8.71168 44 ft 128 kts 222°
2026-04-28 16:19 3.75061 8.70446 65 ft 180 kts 223°
2026-04-28 16:19 3.74119 8.69619 717 ft 172 kts 221°
2026-04-28 16:20 3.73212 8.68832 1365 ft 177 kts 224°
2026-04-28 16:20 3.72256 8.68015 1932 ft 185 kts 216°
2026-04-28 16:20 3.71168 8.67328 2722 ft 183 kts 209°
2026-04-28 16:20 3.70041 8.66790 3560 ft 178 kts 203°
2026-04-28 16:21 3.69159 8.66352 4076 ft 183 kts 211°
2026-04-28 16:22 3.68155 8.65788 4596 ft 190 kts 209°
2026-04-28 16:22 3.66992 8.65078 5113 ft 203 kts 212°
2026-04-28 16:22 3.65755 8.64262 5457 ft 223 kts 213°
2026-04-28 16:23 3.64419 8.63384 5891 ft 237 kts 205°
2026-04-28 16:23 3.62940 8.62513 6283 ft 256 kts 212°
2026-04-28 16:23 3.61506 8.61457 6708 ft 251 kts 216°
2026-04-28 16:23 3.60074 8.60449 6712 ft 254 kts 211°
2026-04-28 16:24 3.58518 8.59493 6927 ft 271 kts 205°
2026-04-28 16:24 3.56715 8.58855 7374 ft 280 kts 193°
2026-04-28 16:24 3.54841 8.58384 8356 ft 274 kts 190°
2026-04-28 16:24 3.52995 8.57925 9149 ft 283 kts 191°
2026-04-28 16:25 3.51024 8.57549 9564 ft 296 kts 175°
2026-04-28 16:25 3.48981 8.58004 9777 ft 309 kts 145°
2026-04-28 16:25 3.47412 8.59430 10531 ft 301 kts 119°
2026-04-28 16:25 3.46684 8.61304 11721 ft 283 kts 97°
2026-04-28 16:26 3.46691 8.63280 12470 ft 292 kts 78°
2026-04-28 16:26 3.47389 8.65256 12740 ft 312 kts 65°
2026-04-28 16:26 3.48425 8.67250 12985 ft 333 kts 64°
2026-04-28 16:26 3.49467 8.69377 13520 ft 346 kts 65°
2026-04-28 16:27 3.50521 8.71599 13965 ft 361 kts 65°
2026-04-28 16:27 3.51617 8.73902 14432 ft 373 kts 65°
2026-04-28 16:27 3.53899 8.78700 15721 ft 387 kts 65°
2026-04-28 16:28 3.55067 8.81147 16420 ft 392 kts 65°
2026-04-28 16:28 3.56315 8.83577 16993 ft 394 kts 57°
2026-04-28 16:28 3.58278 8.85532 17466 ft 407 kts 33°
2026-04-28 16:28 3.60905 8.86639 18127 ft 415 kts 15°
2026-04-28 16:29 3.66726 8.86743 19312 ft 428 kts 352°
2026-04-28 16:29 3.72585 8.85529 20466 ft 437 kts 349°
2026-04-28 16:30 3.75564 8.84856 21075 ft 440 kts 349°
2026-04-28 16:30 3.78561 8.84189 21662 ft 444 kts 349°
2026-04-28 16:30 3.81589 8.83533 22226 ft 447 kts 349°
2026-04-28 16:30 3.84653 8.82887 22802 ft 451 kts 349°
2026-04-28 16:31 3.87751 8.82246 23348 ft 455 kts 349°
2026-04-28 16:31 3.90863 8.81610 23810 ft 458 kts 350°
2026-04-28 16:31 3.93994 8.80972 24272 ft 461 kts 350°
2026-04-28 16:31 3.97147 8.80332 24754 ft 463 kts 350°
2026-04-28 16:32 4.00316 8.79689 25227 ft 466 kts 350°
2026-04-28 16:32 4.06710 8.78386 26112 ft 472 kts 350°
2026-04-28 16:32 4.09937 8.77728 26530 ft 475 kts 350°
2026-04-28 16:33 4.13187 8.77065 26952 ft 478 kts 350°
2026-04-28 16:33 4.15354 8.76624 27237 ft 480 kts 350°
2026-04-28 16:33 4.19748 8.75730 27789 ft 484 kts 350°
2026-04-28 16:33 4.23015 8.75064 28170 ft 487 kts 350°
2026-04-28 16:34 4.26349 8.74384 28571 ft 490 kts 350°
2026-04-28 16:34 4.29702 8.73700 28949 ft 492 kts 350°
2026-04-28 16:34 4.33068 8.73013 29310 ft 495 kts 350°
2026-04-28 16:34 4.36450 8.72324 29650 ft 497 kts 350°
2026-04-28 16:35 4.39850 8.71630 29993 ft 499 kts 350°
2026-04-28 16:35 4.43253 8.70934 30399 ft 498 kts 350°
2026-04-28 16:35 4.46646 8.70241 30856 ft 496 kts 350°
2026-04-28 16:35 4.50020 8.69552 31311 ft 494 kts 350°
2026-04-28 16:36 4.53388 8.68864 31726 ft 493 kts 350°
2026-04-28 16:36 4.56737 8.68132 32067 ft 488 kts 348°
2026-04-28 16:36 4.63486 8.66704 32517 ft 496 kts 351°
2026-04-28 16:37 4.66878 8.66074 32879 ft 496 kts 351°
2026-04-28 16:37 4.70230 8.65431 32837 ft 497 kts 351°
2026-04-28 16:38 4.80321 8.63358 32842 ft 489 kts 349°
2026-04-28 16:38 4.83546 8.62289 32838 ft 492 kts 334°
2026-04-28 16:38 4.86339 8.60294 32851 ft 498 kts 316°
2026-04-28 16:38 4.88524 8.57582 32850 ft 504 kts 302°
2026-04-28 16:39 4.89964 8.54384 32843 ft 504 kts 290°
2026-04-28 16:39 4.92191 8.47682 32848 ft 509 kts 290°
2026-04-28 16:40 4.94507 8.40931 32855 ft 513 kts 290°
2026-04-28 16:40 4.96914 8.34172 32840 ft 514 kts 291°
2026-04-28 16:41 4.99282 8.27506 32832 ft 503 kts 291°
2026-04-28 16:41 5.01648 8.20893 32845 ft 504 kts 290°
2026-04-28 16:42 5.03977 8.14305 32839 ft 505 kts 290°
2026-04-28 16:42 5.06328 8.07632 33028 ft 510 kts 290°
2026-04-28 16:42 5.07512 8.04277 33411 ft 509 kts 290°
2026-04-28 16:43 5.08694 8.00931 33842 ft 507 kts 290°
2026-04-28 16:43 5.09871 7.97600 34216 ft 506 kts 290°
2026-04-28 16:43 5.11038 7.94292 34681 ft 501 kts 290°
2026-04-28 16:43 5.12199 7.91005 35145 ft 498 kts 290°
2026-04-28 16:44 5.13355 7.87735 35490 ft 497 kts 290°
2026-04-28 16:44 5.14511 7.84466 35750 ft 498 kts 290°
2026-04-28 16:44 5.15675 7.81173 35790 ft 503 kts 290°
2026-04-28 16:45 5.18012 7.74549 35833 ft 502 kts 290°
2026-04-28 16:45 5.20322 7.67994 35834 ft 496 kts 290°
2026-04-28 16:46 5.22620 7.61472 35836 ft 495 kts 290°
2026-04-28 16:46 5.24914 7.54962 35844 ft 494 kts 290°
2026-04-28 16:47 5.27208 7.48457 35834 ft 494 kts 290°
2026-04-28 16:47 5.29477 7.42006 35831 ft 494 kts 290°
2026-04-28 16:48 5.31767 7.35503 35840 ft 495 kts 290°
2026-04-28 16:48 5.34067 7.28981 35836 ft 495 kts 290°
2026-04-28 16:49 5.36358 7.22462 35835 ft 496 kts 290°
2026-04-28 16:49 5.38654 7.15929 35834 ft 496 kts 290°
2026-04-28 16:50 5.40951 7.09403 35830 ft 496 kts 290°
2026-04-28 16:50 5.43236 7.02923 35831 ft 496 kts 290°
2026-04-28 16:51 5.45535 6.96402 35830 ft 496 kts 290°
2026-04-28 16:51 5.47832 6.89833 35832 ft 496 kts 290°
2026-04-28 16:52 5.50104 6.83303 35827 ft 496 kts 290°
2026-04-28 16:52 5.52383 6.76768 35827 ft 495 kts 290°
2026-04-28 16:53 5.54646 6.70288 35827 ft 494 kts 290°
2026-04-28 16:53 5.56920 6.63768 35825 ft 494 kts 290°
2026-04-28 16:54 5.59189 6.57257 35822 ft 494 kts 290°
2026-04-28 16:54 5.61465 6.50751 35821 ft 493 kts 290°
2026-04-28 16:55 5.63755 6.44253 35816 ft 493 kts 290°
2026-04-28 16:55 5.66025 6.37805 35822 ft 493 kts 290°
2026-04-28 16:56 5.68303 6.31316 35826 ft 493 kts 290°
2026-04-28 16:56 5.70580 6.24824 35813 ft 493 kts 290°
2026-04-28 16:57 5.72866 6.18315 35826 ft 494 kts 290°
2026-04-28 16:57 5.75132 6.11802 35828 ft 494 kts 289°
2026-04-28 16:58 5.77391 6.05280 35823 ft 495 kts 289°
2026-04-28 16:58 5.79651 5.98743 35827 ft 496 kts 289°
2026-04-28 16:59 5.81917 5.92194 35836 ft 497 kts 289°
2026-04-28 16:59 5.84174 5.85673 35835 ft 498 kts 289°
2026-04-28 17:00 5.86449 5.79104 35833 ft 498 kts 289°
2026-04-28 17:00 5.88727 5.72524 35839 ft 499 kts 289°
2026-04-28 17:01 5.91006 5.65934 35840 ft 499 kts 289°
2026-04-28 17:01 5.93279 5.59360 35833 ft 498 kts 289°
2026-04-28 17:02 5.95543 5.52790 35838 ft 497 kts 289°
2026-04-28 17:02 5.97426 5.47336 35838 ft 497 kts 289°
2026-04-28 17:03 6.01189 5.36444 35838 ft 496 kts 289°
2026-04-28 17:03 6.03447 5.29901 35842 ft 495 kts 289°
2026-04-28 17:04 6.06449 5.21186 35845 ft 496 kts 289°
2026-04-28 17:05 6.09831 5.11374 35839 ft 495 kts 289°
2026-04-28 17:06 6.13208 5.01569 35841 ft 495 kts 289°
2026-04-28 17:06 6.16580 4.91768 35840 ft 494 kts 289°
2026-04-28 17:07 6.18821 4.85248 35843 ft 493 kts 289°
2026-04-28 17:07 6.21046 4.78761 35844 ft 494 kts 289°
2026-04-28 17:08 6.23288 4.72229 35840 ft 495 kts 289°
2026-04-28 17:08 6.25536 4.65682 35845 ft 495 kts 289°
2026-04-28 17:09 6.27783 4.59129 35833 ft 496 kts 289°
2026-04-28 17:09 6.30029 4.52580 35829 ft 496 kts 289°
2026-04-28 17:10 6.32265 4.46024 35852 ft 496 kts 289°
2026-04-28 17:10 6.34511 4.39467 35843 ft 495 kts 289°
2026-04-28 17:11 6.36740 4.32952 35835 ft 495 kts 289°
2026-04-28 17:11 6.38972 4.26403 35837 ft 495 kts 289°
2026-04-28 17:12 6.41206 4.19850 35840 ft 495 kts 289°
2026-04-28 17:12 6.43438 4.13299 35840 ft 495 kts 289°
2026-04-28 17:13 6.45662 4.06758 35836 ft 494 kts 289°
2026-04-28 17:13 6.47884 4.00220 35838 ft 494 kts 289°
2026-04-28 17:14 6.50111 3.93646 35821 ft 497 kts 289°
2026-04-28 17:14 6.52266 3.87086 35834 ft 493 kts 288°
2026-04-28 17:15 6.54492 3.80570 35847 ft 492 kts 290°
2026-04-28 17:15 6.56749 3.74116 35836 ft 493 kts 290°
2026-04-28 17:16 6.58977 3.67600 35825 ft 491 kts 290°
2026-04-28 17:16 6.61204 3.61124 35839 ft 491 kts 289°
2026-04-28 17:17 6.63380 3.54607 35835 ft 491 kts 289°
2026-04-28 17:17 6.65583 3.48087 35831 ft 493 kts 289°
2026-04-28 17:18 6.67803 3.41554 35841 ft 494 kts 289°
2026-04-28 17:18 6.70269 3.35113 35829 ft 492 kts 300°
2026-04-28 17:19 6.74329 3.29659 35843 ft 490 kts 316°
2026-04-28 17:19 6.79553 3.25258 35841 ft 490 kts 322°
2026-04-28 17:20 6.83980 3.21674 35828 ft 491 kts 322°
2026-04-28 17:20 6.90169 3.16585 35841 ft 491 kts 322°
2026-04-28 17:21 6.95444 3.12192 35842 ft 491 kts 321°
2026-04-28 17:22 7.03284 3.05649 35842 ft 489 kts 321°
2026-04-28 17:22 7.08525 3.01277 35846 ft 488 kts 321°
2026-04-28 17:23 7.16360 2.94742 35843 ft 487 kts 321°
2026-04-28 17:23 7.21579 2.90387 35840 ft 487 kts 321°
2026-04-28 17:24 7.26786 2.86040 35842 ft 486 kts 321°
2026-04-28 17:24 7.31994 2.81690 35844 ft 486 kts 321°
2026-04-28 17:25 7.39810 2.75162 35844 ft 487 kts 321°
2026-04-28 17:26 7.45003 2.70781 35845 ft 487 kts 321°
2026-04-28 17:26 7.50184 2.66378 35852 ft 487 kts 321°
2026-04-28 17:27 7.55361 2.61980 35843 ft 486 kts 321°
2026-04-28 17:27 7.60502 2.57614 35834 ft 484 kts 321°
2026-04-28 17:28 7.65654 2.53242 35828 ft 483 kts 321°
2026-04-28 17:28 7.73344 2.46716 35833 ft 480 kts 321°
2026-04-28 17:29 7.78446 2.42379 35827 ft 479 kts 321°
2026-04-28 17:30 7.86103 2.35870 35827 ft 480 kts 321°
2026-04-28 17:30 7.93761 2.29370 35821 ft 480 kts 321°
2026-04-28 17:31 8.01397 2.22885 35812 ft 481 kts 321°
2026-04-28 17:32 8.09074 2.16358 35816 ft 481 kts 321°
2026-04-28 17:32 8.14201 2.12000 35811 ft 482 kts 321°
2026-04-28 17:33 8.19330 2.07639 35804 ft 482 kts 321°
2026-04-28 17:33 8.23585 2.04018 35810 ft 481 kts 321°
2026-04-28 17:34 8.29568 1.98922 35811 ft 481 kts 321°
2026-04-28 17:34 8.34695 1.94556 35803 ft 481 kts 321°
2026-04-28 17:35 8.39808 1.90202 35808 ft 481 kts 320°
2026-04-28 17:35 8.44926 1.85842 35808 ft 481 kts 320°
2026-04-28 17:36 8.50015 1.81508 35810 ft 482 kts 320°
2026-04-28 17:36 8.55138 1.77136 35807 ft 482 kts 320°
2026-04-28 17:37 8.60261 1.72765 35807 ft 482 kts 320°
2026-04-28 17:37 8.65384 1.68394 35806 ft 481 kts 320°
2026-04-28 17:38 8.70499 1.64028 35808 ft 482 kts 320°
2026-04-28 17:38 8.75622 1.59652 35804 ft 482 kts 320°
2026-04-28 17:39 8.80748 1.55273 35810 ft 483 kts 320°
2026-04-28 17:40 8.88451 1.48691 35812 ft 484 kts 320°
2026-04-28 17:40 8.93588 1.44295 35813 ft 483 kts 320°
2026-04-28 17:41 8.98687 1.39934 35809 ft 483 kts 320°
2026-04-28 17:41 9.03811 1.35549 35814 ft 483 kts 320°
2026-04-28 17:42 9.08934 1.31162 35808 ft 482 kts 320°
2026-04-28 17:42 9.14049 1.26781 35820 ft 481 kts 320°
2026-04-28 17:43 9.19156 1.22406 35816 ft 480 kts 320°
2026-04-28 17:43 9.24214 1.18067 35805 ft 479 kts 320°
2026-04-28 17:44 9.29335 1.13676 35821 ft 479 kts 320°
2026-04-28 17:44 9.34399 1.09331 35814 ft 480 kts 320°
2026-04-28 17:45 9.39488 1.04965 35801 ft 480 kts 320°
2026-04-28 17:45 9.44575 1.00599 35797 ft 479 kts 320°
2026-04-28 17:46 9.49656 0.96234 35821 ft 478 kts 319°
2026-04-28 17:46 9.54726 0.91874 35787 ft 479 kts 319°
2026-04-28 17:47 9.59804 0.87509 35791 ft 479 kts 319°
2026-04-28 17:47 9.64885 0.83142 35791 ft 479 kts 319°
2026-04-28 17:48 9.69940 0.78795 35782 ft 479 kts 319°
2026-04-28 17:48 9.75031 0.74413 35777 ft 480 kts 320°
2026-04-28 17:49 9.80126 0.70024 35779 ft 481 kts 320°
2026-04-28 17:49 9.85236 0.65622 35770 ft 482 kts 319°
2026-04-28 17:50 9.90363 0.61200 35777 ft 483 kts 319°
2026-04-28 17:50 9.94624 0.57527 35780 ft 484 kts 319°
2026-04-28 17:51 9.99758 0.53098 35778 ft 485 kts 319°
2026-04-28 17:51 10.04895 0.48668 35780 ft 485 kts 319°
2026-04-28 17:52 10.10036 0.44229 35779 ft 485 kts 319°
2026-04-28 17:52 10.17751 0.37564 35787 ft 486 kts 319°
2026-04-28 17:53 10.22900 0.33112 35782 ft 485 kts 320°
2026-04-28 17:53 10.28003 0.28701 35787 ft 484 kts 320°
2026-04-28 17:54 10.33129 0.24266 35786 ft 484 kts 320°
2026-04-28 17:54 10.38260 0.19828 35799 ft 485 kts 320°
2026-04-28 17:55 10.43436 0.15434 35784 ft 483 kts 320°
2026-04-28 17:55 10.48476 0.10936 35796 ft 482 kts 318°
2026-04-28 17:56 10.53545 0.06531 35819 ft 476 kts 321°
2026-04-28 17:56 10.58635 0.02127 35829 ft 485 kts 320°
2026-04-28 17:57 10.63780 -0.02282 35828 ft 483 kts 319°
2026-04-28 17:57 10.68894 -0.06740 35825 ft 485 kts 319°
2026-04-28 17:58 10.73996 -0.11164 35816 ft 485 kts 319°
2026-04-28 17:58 10.79127 -0.15596 35817 ft 483 kts 319°
2026-04-28 17:59 10.84248 -0.20031 35818 ft 482 kts 319°
2026-04-28 17:59 10.89348 -0.24452 35820 ft 481 kts 319°
2026-04-28 18:00 10.94429 -0.28861 35819 ft 480 kts 319°
2026-04-28 18:00 10.99496 -0.33276 35825 ft 480 kts 319°
2026-04-28 18:01 11.04557 -0.37646 35800 ft 476 kts 319°
2026-04-28 18:01 11.09630 -0.42006 35824 ft 479 kts 319°
2026-04-28 18:02 11.14697 -0.46435 35837 ft 481 kts 319°
2026-04-28 18:02 11.19788 -0.50878 35837 ft 483 kts 319°
2026-04-28 18:03 11.24900 -0.55333 35837 ft 484 kts 319°
2026-04-28 18:03 11.30017 -0.59786 35838 ft 484 kts 319°
2026-04-28 18:04 11.35105 -0.64214 35833 ft 484 kts 319°
2026-04-28 18:04 11.40215 -0.68668 35840 ft 483 kts 319°
2026-04-28 18:05 11.44487 -0.72394 35833 ft 481 kts 319°
2026-04-28 18:05 11.50400 -0.77549 35859 ft 480 kts 319°
2026-04-28 18:06 11.55478 -0.81975 35840 ft 480 kts 319°
2026-04-28 18:06 11.60543 -0.86400 35838 ft 479 kts 319°
2026-04-28 18:07 11.65602 -0.90819 35846 ft 479 kts 319°
2026-04-28 18:07 11.70658 -0.95233 35846 ft 478 kts 319°
2026-04-28 18:08 11.75707 -0.99647 35839 ft 477 kts 318°
2026-04-28 18:08 11.80722 -1.04033 35844 ft 477 kts 319°
2026-04-28 18:09 11.85758 -1.08439 35850 ft 477 kts 318°
2026-04-28 18:09 11.90794 -1.12848 35849 ft 477 kts 318°
2026-04-28 18:10 11.95825 -1.17254 35860 ft 476 kts 319°
2026-04-28 18:10 12.00850 -1.21659 35853 ft 476 kts 319°
2026-04-28 18:11 12.05869 -1.26066 35868 ft 476 kts 318°
2026-04-28 18:11 12.10893 -1.30470 35858 ft 475 kts 318°
2026-04-28 18:12 12.15904 -1.34865 35858 ft 475 kts 318°
2026-04-28 18:12 12.20921 -1.39271 35863 ft 475 kts 318°
2026-04-28 18:13 12.25894 -1.43643 35863 ft 474 kts 318°
2026-04-28 18:13 12.30896 -1.48040 35864 ft 474 kts 318°
2026-04-28 18:14 12.36279 -1.51940 35867 ft 476 kts 328°
2026-04-28 18:14 12.42250 -1.54866 35886 ft 477 kts 334°
2026-04-28 18:15 12.48341 -1.57563 35866 ft 477 kts 334°
2026-04-28 18:15 12.54425 -1.60280 35844 ft 477 kts 334°
2026-04-28 18:16 12.60495 -1.63026 35851 ft 477 kts 334°
2026-04-28 18:16 12.66557 -1.65778 35858 ft 477 kts 334°
2026-04-28 18:17 12.72624 -1.68534 35861 ft 477 kts 334°
2026-04-28 18:17 12.78690 -1.71291 35857 ft 477 kts 334°
2026-04-28 18:18 12.84756 -1.74048 35851 ft 477 kts 334°
2026-04-28 18:18 12.89797 -1.76339 35852 ft 477 kts 334°
2026-04-28 18:19 12.96879 -1.79563 35847 ft 476 kts 334°
2026-04-28 18:19 13.02939 -1.82321 35848 ft 476 kts 334°
2026-04-28 18:20 13.08956 -1.85062 35839 ft 476 kts 334°
2026-04-28 18:20 13.15012 -1.87822 35848 ft 476 kts 334°
2026-04-28 18:21 13.21081 -1.90585 35836 ft 477 kts 334°
2026-04-28 18:21 13.27163 -1.93353 35833 ft 478 kts 333°
2026-04-28 18:22 13.33243 -1.96124 35833 ft 478 kts 333°
2026-04-28 18:22 13.39289 -1.98881 35830 ft 478 kts 333°
2026-04-28 18:23 13.45373 -2.01660 35824 ft 478 kts 333°
2026-04-28 18:23 13.51459 -2.04441 35825 ft 479 kts 333°
2026-04-28 18:24 13.56528 -2.06756 35822 ft 479 kts 333°
2026-04-28 18:24 13.63652 -2.10011 35819 ft 479 kts 333°
2026-04-28 18:25 13.69743 -2.12797 35820 ft 479 kts 333°
2026-04-28 18:26 13.78884 -2.16980 35817 ft 479 kts 333°
2026-04-28 18:26 13.84936 -2.19753 35823 ft 479 kts 333°
2026-04-28 18:27 13.91031 -2.22548 35820 ft 479 kts 333°
2026-04-28 18:27 13.97128 -2.25345 35809 ft 479 kts 333°
2026-04-28 18:28 14.03222 -2.28138 35812 ft 479 kts 333°
2026-04-28 18:28 14.09312 -2.30933 35807 ft 478 kts 333°
2026-04-28 18:29 14.15394 -2.33728 35803 ft 478 kts 332°
2026-04-28 18:29 14.21459 -2.36519 35810 ft 477 kts 333°
2026-04-28 18:30 14.27488 -2.39293 35784 ft 477 kts 333°
2026-04-28 18:30 14.33553 -2.42084 35803 ft 477 kts 333°
2026-04-28 18:31 14.39626 -2.44880 35798 ft 478 kts 333°
2026-04-28 18:31 14.45697 -2.47676 35787 ft 478 kts 333°
2026-04-28 18:32 14.51772 -2.50473 35788 ft 478 kts 333°
2026-04-28 18:32 14.57850 -2.53276 35801 ft 478 kts 333°
2026-04-28 18:33 14.63926 -2.56081 35794 ft 479 kts 333°
2026-04-28 18:33 14.70008 -2.58891 35779 ft 478 kts 333°
2026-04-28 18:34 14.76085 -2.61698 35799 ft 479 kts 333°
2026-04-28 18:34 14.82175 -2.64513 35799 ft 479 kts 332°
2026-04-28 18:35 14.88264 -2.67330 35796 ft 479 kts 332°
2026-04-28 18:35 14.94347 -2.70144 35790 ft 479 kts 332°
2026-04-28 18:36 15.00434 -2.72966 35794 ft 479 kts 332°
2026-04-28 18:36 15.06469 -2.75764 35798 ft 479 kts 332°
2026-04-28 18:37 15.12556 -2.78588 35803 ft 480 kts 332°
2026-04-28 18:37 15.18653 -2.81422 35797 ft 481 kts 332°
2026-04-28 18:38 15.23733 -2.83785 35795 ft 481 kts 332°
2026-04-28 18:38 15.29834 -2.86622 35798 ft 481 kts 331°
2026-04-28 18:39 15.35942 -2.89469 35794 ft 481 kts 331°
2026-04-28 18:39 15.42054 -2.92320 35798 ft 482 kts 331°
2026-04-28 18:40 15.48168 -2.95170 35793 ft 482 kts 331°
2026-04-28 18:40 15.54289 -2.98026 35792 ft 482 kts 331°
2026-04-28 18:41 15.60415 -3.00887 35794 ft 482 kts 331°
2026-04-28 18:41 15.66499 -3.03731 35784 ft 483 kts 331°
2026-04-28 18:42 15.72623 -3.06595 35807 ft 482 kts 331°
2026-04-28 18:42 15.78725 -3.09450 35790 ft 480 kts 331°
2026-04-28 18:43 15.84808 -3.12294 35789 ft 479 kts 331°
2026-04-28 18:43 15.90869 -3.15135 35792 ft 477 kts 331°
2026-04-28 18:44 15.96923 -3.17973 35792 ft 476 kts 331°
2026-04-28 18:44 16.05999 -3.22234 35796 ft 478 kts 332°
2026-04-28 18:45 16.12062 -3.25081 35801 ft 479 kts 332°
2026-04-28 18:45 16.18107 -3.27922 35796 ft 480 kts 332°
2026-04-28 18:46 16.24206 -3.30791 35797 ft 481 kts 332°
2026-04-28 18:46 16.30316 -3.33666 35795 ft 482 kts 332°
2026-04-28 18:47 16.36439 -3.36550 35803 ft 483 kts 331°
2026-04-28 18:47 16.42574 -3.39441 35798 ft 484 kts 331°
2026-04-28 18:48 16.48712 -3.42332 35791 ft 484 kts 331°
2026-04-28 18:48 16.54847 -3.45228 35792 ft 483 kts 331°
2026-04-28 18:49 16.59931 -3.47626 35790 ft 482 kts 331°
2026-04-28 18:49 16.67059 -3.50993 35804 ft 480 kts 331°
2026-04-28 18:50 16.73108 -3.53854 35791 ft 480 kts 330°
2026-04-28 18:50 16.79194 -3.56734 35788 ft 480 kts 330°
2026-04-28 18:51 16.85283 -3.59617 35790 ft 481 kts 330°
2026-04-28 18:51 16.91380 -3.62507 35789 ft 481 kts 330°
2026-04-28 18:52 16.97479 -3.65399 35790 ft 481 kts 330°
2026-04-28 18:52 17.03580 -3.68293 35794 ft 482 kts 330°
2026-04-28 18:53 17.09689 -3.71193 35784 ft 482 kts 330°
2026-04-28 18:53 17.15795 -3.74096 35783 ft 482 kts 330°
2026-04-28 18:54 17.21915 -3.77006 35782 ft 483 kts 330°
2026-04-28 18:54 17.28029 -3.79915 35779 ft 483 kts 330°
2026-04-28 18:55 17.33109 -3.82334 35782 ft 482 kts 330°
2026-04-28 18:55 17.40199 -3.85712 35789 ft 480 kts 329°
2026-04-28 18:56 17.46270 -3.88606 35776 ft 477 kts 329°
2026-04-28 18:56 17.52291 -3.91479 35778 ft 474 kts 329°
2026-04-28 18:57 17.58287 -3.94344 35774 ft 472 kts 329°
2026-04-28 18:57 17.64252 -3.97195 35779 ft 471 kts 329°
2026-04-28 18:58 17.70214 -4.00049 35781 ft 471 kts 329°
2026-04-28 18:58 17.76137 -4.02887 35776 ft 472 kts 329°
2026-04-28 18:59 17.82113 -4.05750 35780 ft 472 kts 329°
2026-04-28 18:59 17.88106 -4.08622 35782 ft 473 kts 329°
2026-04-28 19:00 17.94102 -4.11498 35793 ft 474 kts 329°
2026-04-28 19:00 18.00108 -4.14380 35791 ft 475 kts 329°
2026-04-28 19:01 18.06118 -4.17269 35780 ft 475 kts 329°
2026-04-28 19:01 18.12097 -4.20143 35781 ft 475 kts 329°
2026-04-28 19:02 18.18113 -4.23038 35781 ft 475 kts 329°
2026-04-28 19:02 18.24120 -4.25929 35779 ft 474 kts 329°
2026-04-28 19:03 18.30117 -4.28820 35783 ft 474 kts 329°
2026-04-28 19:03 18.36119 -4.31717 35783 ft 474 kts 329°
2026-04-28 19:04 18.42113 -4.34609 35819 ft 473 kts 329°
2026-04-28 19:04 18.48058 -4.37479 35811 ft 472 kts 328°
2026-04-28 19:05 18.54023 -4.40364 35812 ft 471 kts 328°
2026-04-28 19:05 18.59988 -4.43248 35813 ft 470 kts 328°
2026-04-28 19:06 18.64931 -4.45640 35811 ft 469 kts 328°
2026-04-28 19:06 18.71870 -4.49005 35813 ft 469 kts 328°
2026-04-28 19:07 18.77807 -4.51886 35820 ft 470 kts 328°
2026-04-28 19:07 18.83751 -4.54770 35814 ft 470 kts 328°
2026-04-28 19:08 18.89691 -4.57655 35819 ft 470 kts 328°
2026-04-28 19:08 18.95627 -4.60540 35817 ft 470 kts 328°
2026-04-28 19:09 19.01520 -4.63406 35819 ft 469 kts 328°
2026-04-28 19:09 19.07451 -4.66294 35842 ft 469 kts 327°
2026-04-28 19:10 19.13371 -4.69177 35820 ft 468 kts 327°
2026-04-28 19:10 19.19289 -4.72062 35815 ft 467 kts 327°
2026-04-28 19:11 19.25189 -4.74943 35819 ft 467 kts 327°
2026-04-28 19:11 19.31083 -4.77823 35819 ft 467 kts 327°
2026-04-28 19:12 19.36768 -4.81007 35813 ft 455 kts 316°
2026-04-28 19:12 19.41417 -4.85392 35828 ft 442 kts 303°
2026-04-28 19:13 19.45163 -4.90452 35825 ft 438 kts 301°
2026-04-28 19:13 19.48870 -4.95579 35821 ft 438 kts 301°
2026-04-28 19:14 19.52599 -5.00697 35820 ft 439 kts 301°
2026-04-28 19:14 19.56345 -5.05813 35814 ft 439 kts 301°
2026-04-28 19:15 19.60090 -5.10921 35816 ft 438 kts 301°
2026-04-28 19:15 19.63203 -5.15167 35818 ft 439 kts 301°
2026-04-28 19:16 19.67575 -5.21139 35818 ft 438 kts 301°
2026-04-28 19:16 19.71291 -5.26223 35817 ft 438 kts 301°
2026-04-28 19:17 19.75029 -5.31339 35819 ft 438 kts 301°
2026-04-28 19:17 19.78760 -5.36449 35817 ft 437 kts 300°
2026-04-28 19:18 19.82482 -5.41551 35812 ft 436 kts 300°
2026-04-28 19:18 19.86194 -5.46644 35814 ft 436 kts 300°
2026-04-28 19:19 19.89899 -5.51732 35809 ft 435 kts 300°
2026-04-28 19:19 19.93598 -5.56816 35813 ft 435 kts 300°
2026-04-28 19:20 19.97296 -5.61906 35810 ft 435 kts 300°
2026-04-28 19:20 20.00992 -5.66994 35808 ft 435 kts 300°
2026-04-28 19:21 20.04684 -5.72081 35844 ft 435 kts 300°
2026-04-28 19:21 20.08361 -5.77155 35810 ft 435 kts 300°
2026-04-28 19:22 20.10833 -5.80566 35809 ft 435 kts 300°
2026-04-28 19:22 20.15749 -5.87358 35813 ft 435 kts 300°
2026-04-28 19:23 20.19440 -5.92462 35808 ft 434 kts 300°
2026-04-28 19:23 20.23121 -5.97557 35809 ft 434 kts 300°
2026-04-28 19:24 20.26800 -6.02652 35808 ft 433 kts 300°
2026-04-28 19:24 20.30471 -6.07743 35808 ft 433 kts 300°
2026-04-28 19:25 20.34139 -6.12837 35815 ft 433 kts 300°
2026-04-28 19:25 20.37785 -6.17901 35830 ft 433 kts 300°
2026-04-28 19:26 20.41446 -6.22989 35817 ft 432 kts 299°
2026-04-28 19:26 20.45100 -6.28076 35815 ft 432 kts 299°
2026-04-28 19:27 20.48746 -6.33155 35812 ft 431 kts 299°
2026-04-28 19:27 20.51769 -6.37376 35811 ft 430 kts 299°
2026-04-28 19:28 20.55405 -6.42452 35810 ft 430 kts 299°
2026-04-28 19:28 20.59033 -6.47523 35818 ft 430 kts 299°
2026-04-28 19:29 20.62050 -6.51743 35816 ft 430 kts 299°
2026-04-28 19:29 20.66286 -6.57675 35815 ft 430 kts 299°
2026-04-28 19:30 20.69912 -6.62756 35830 ft 430 kts 299°
2026-04-28 19:30 20.73538 -6.67842 35826 ft 430 kts 299°
2026-04-28 19:31 20.77157 -6.72921 35819 ft 429 kts 299°
2026-04-28 19:31 20.80745 -6.77962 35814 ft 428 kts 299°
2026-04-28 19:32 20.84347 -6.83027 35818 ft 428 kts 299°
2026-04-28 19:32 20.87947 -6.88097 35818 ft 429 kts 299°
2026-04-28 19:33 20.91554 -6.93178 35820 ft 428 kts 299°
2026-04-28 19:33 20.95152 -6.98251 35817 ft 428 kts 299°
2026-04-28 19:34 20.98747 -7.03324 35823 ft 428 kts 299°
2026-04-28 19:34 21.02341 -7.08402 35836 ft 428 kts 299°
2026-04-28 19:35 21.05910 -7.13447 35827 ft 427 kts 299°
2026-04-28 19:35 21.09491 -7.18514 35821 ft 426 kts 298°
2026-04-28 19:36 21.13064 -7.23575 35837 ft 425 kts 299°
2026-04-28 19:36 21.16631 -7.28632 35828 ft 425 kts 299°
2026-04-28 19:37 21.19615 -7.32866 35828 ft 424 kts 298°
2026-04-28 19:37 21.23743 -7.38729 35831 ft 424 kts 298°
2026-04-28 19:38 21.27292 -7.43771 35829 ft 423 kts 298°
2026-04-28 19:38 21.30835 -7.48815 35834 ft 423 kts 298°
2026-04-28 19:39 21.34381 -7.53866 35833 ft 424 kts 298°
2026-04-28 19:39 21.37930 -7.58924 35838 ft 424 kts 298°
2026-04-28 19:40 21.41457 -7.63957 35840 ft 425 kts 298°
2026-04-28 19:40 21.45011 -7.69033 35842 ft 425 kts 298°
2026-04-28 19:41 21.48567 -7.74117 35838 ft 426 kts 298°
2026-04-28 19:41 21.52122 -7.79200 35838 ft 426 kts 298°
2026-04-28 19:42 21.55680 -7.84294 35839 ft 426 kts 298°
2026-04-28 19:42 21.58637 -7.88533 35837 ft 425 kts 298°
2026-04-28 19:43 21.62762 -7.94452 35852 ft 426 kts 298°
2026-04-28 19:43 21.66315 -7.99553 35847 ft 427 kts 298°
2026-04-28 19:44 21.69868 -8.04660 35848 ft 427 kts 298°
2026-04-28 19:44 21.73423 -8.09777 35848 ft 427 kts 298°
2026-04-28 19:45 21.76976 -8.14895 35849 ft 427 kts 298°
2026-04-28 19:45 21.80542 -8.20035 35854 ft 428 kts 298°
2026-04-28 19:46 21.84101 -8.25169 35851 ft 428 kts 298°
2026-04-28 19:46 21.87657 -8.30301 35855 ft 427 kts 298°
2026-04-28 19:47 21.91191 -8.35409 35857 ft 427 kts 298°
2026-04-28 19:47 21.94743 -8.40548 35863 ft 428 kts 298°
2026-04-28 19:48 21.98300 -8.45701 35858 ft 428 kts 298°
2026-04-28 19:48 22.01855 -8.50852 35863 ft 428 kts 298°
2026-04-28 19:49 22.05410 -8.56010 35862 ft 428 kts 298°
2026-04-28 19:49 22.08962 -8.61172 35865 ft 428 kts 298°
2026-04-28 19:50 22.13878 -8.69087 35872 ft 419 kts 290°
2026-04-28 19:51 22.16324 -8.74755 35875 ft 417 kts 288°
2026-04-28 19:51 22.18753 -8.80445 35869 ft 418 kts 288°
2026-04-28 19:52 22.21195 -8.86138 35870 ft 418 kts 288°
2026-04-28 19:52 22.23643 -8.91839 35869 ft 418 kts 288°
2026-04-28 19:53 22.26091 -8.97540 35869 ft 418 kts 288°
2026-04-28 19:53 22.28538 -9.03241 35867 ft 418 kts 288°
2026-04-28 19:54 22.30978 -9.08939 35875 ft 418 kts 288°
2026-04-28 19:54 22.33417 -9.14634 35875 ft 417 kts 288°
2026-04-28 19:55 22.35850 -9.20324 35878 ft 417 kts 288°
2026-04-28 19:55 22.38279 -9.26016 35878 ft 416 kts 288°
2026-04-28 19:56 22.40702 -9.31698 35882 ft 417 kts 288°
2026-04-28 19:56 22.43126 -9.37389 35882 ft 417 kts 288°
2026-04-28 19:57 22.45533 -9.43047 35880 ft 417 kts 288°
2026-04-28 19:57 22.47953 -9.48740 35894 ft 417 kts 288°
2026-04-28 19:58 22.50371 -9.54437 35927 ft 417 kts 288°
2026-04-28 19:58 22.52790 -9.60144 35896 ft 417 kts 288°
2026-04-28 19:59 22.55202 -9.65842 35885 ft 417 kts 288°
2026-04-28 19:59 22.57612 -9.71540 35885 ft 415 kts 288°
2026-04-28 20:00 22.60015 -9.77222 35885 ft 415 kts 288°
2026-04-28 20:00 22.62413 -9.82906 35885 ft 415 kts 288°
2026-04-28 20:01 22.64804 -9.88583 35898 ft 415 kts 288°
2026-04-28 20:01 22.67196 -9.94267 35896 ft 415 kts 288°
2026-04-28 20:02 22.69594 -9.99968 35891 ft 416 kts 288°
2026-04-28 20:02 22.71973 -10.05634 35891 ft 416 kts 288°
2026-04-28 20:03 22.74365 -10.11337 35888 ft 415 kts 288°
2026-04-28 20:03 22.76753 -10.17037 35895 ft 415 kts 288°
2026-04-28 20:04 22.79142 -10.22746 35899 ft 416 kts 289°
2026-04-28 20:04 22.81536 -10.28476 35906 ft 417 kts 289°
2026-04-28 20:05 22.83914 -10.34175 35895 ft 418 kts 289°
2026-04-28 20:05 22.86314 -10.39929 35896 ft 419 kts 289°
2026-04-28 20:06 22.88581 -10.45736 35895 ft 416 kts 285°
2026-04-28 20:06 22.90542 -10.51646 35905 ft 416 kts 285°
2026-04-28 20:07 22.92487 -10.57570 35896 ft 417 kts 285°
2026-04-28 20:07 22.94440 -10.63500 35901 ft 418 kts 285°
2026-04-28 20:08 22.96400 -10.69434 35902 ft 418 kts 285°
2026-04-28 20:08 22.98365 -10.75382 35899 ft 419 kts 285°
2026-04-28 20:09 23.00316 -10.81291 35911 ft 419 kts 285°
2026-04-28 20:09 23.02279 -10.87249 35909 ft 419 kts 285°
2026-04-28 20:10 23.04236 -10.93197 35906 ft 419 kts 285°
2026-04-28 20:10 23.06192 -10.99155 35914 ft 420 kts 285°
2026-04-28 20:11 23.08149 -11.05123 35909 ft 419 kts 285°
2026-04-28 20:11 23.10102 -11.11085 35915 ft 419 kts 285°
2026-04-28 20:12 23.12050 -11.17041 35914 ft 418 kts 285°
2026-04-28 20:12 23.13996 -11.23002 35920 ft 418 kts 285°
2026-04-28 20:13 23.15937 -11.28953 35913 ft 418 kts 285°
2026-04-28 20:13 23.17874 -11.34902 35917 ft 417 kts 285°
2026-04-28 20:14 23.19808 -11.40852 35918 ft 417 kts 285°
2026-04-28 20:14 23.21742 -11.46805 35924 ft 418 kts 285°
2026-04-28 20:15 23.23661 -11.52723 35925 ft 418 kts 285°
2026-04-28 20:15 23.25592 -11.58689 35927 ft 418 kts 285°
2026-04-28 20:16 23.27522 -11.64659 35926 ft 418 kts 285°
2026-04-28 20:16 23.29449 -11.70628 35925 ft 418 kts 285°
2026-04-28 20:17 23.31051 -11.75591 35953 ft 419 kts 285°
2026-04-28 20:17 23.32979 -11.81579 35936 ft 419 kts 285°
2026-04-28 20:18 23.34905 -11.87580 35930 ft 420 kts 285°
2026-04-28 20:18 23.36833 -11.93586 35933 ft 420 kts 285°
2026-04-28 20:19 23.38759 -11.99596 35933 ft 420 kts 285°
2026-04-28 20:19 23.40684 -12.05612 35932 ft 421 kts 285°
2026-04-28 20:20 23.42609 -12.11635 35941 ft 421 kts 285°
2026-04-28 20:20 23.44523 -12.17630 35939 ft 422 kts 285°
2026-04-28 20:21 23.46449 -12.23675 35936 ft 422 kts 285°
2026-04-28 20:21 23.48376 -12.29727 35938 ft 423 kts 285°
2026-04-28 20:22 23.50301 -12.35782 35943 ft 423 kts 285°
2026-04-28 20:22 23.52222 -12.41837 35950 ft 422 kts 285°
2026-04-28 20:23 23.54138 -12.47883 35944 ft 422 kts 285°
2026-04-28 20:23 23.56052 -12.53933 35979 ft 422 kts 285°
2026-04-28 20:24 23.57963 -12.59980 35951 ft 422 kts 285°
2026-04-28 20:24 23.59862 -12.65996 35951 ft 422 kts 285°
2026-04-28 20:25 23.61774 -12.72064 35946 ft 423 kts 285°
2026-04-28 20:25 23.63679 -12.78129 35952 ft 423 kts 286°
2026-04-28 20:26 23.65586 -12.84200 35954 ft 423 kts 286°
2026-04-28 20:26 23.67489 -12.90274 35948 ft 423 kts 286°
2026-04-28 20:27 23.69846 -12.96141 35950 ft 429 kts 300°
2026-04-28 20:27 23.73916 -13.00978 35954 ft 441 kts 316°
2026-04-28 20:28 23.79148 -13.04580 35959 ft 446 kts 323°
2026-04-28 20:28 23.84502 -13.08042 35981 ft 447 kts 323°
2026-04-28 20:29 23.89807 -13.11521 35953 ft 447 kts 322°
2026-04-28 20:29 23.95121 -13.15055 35971 ft 447 kts 322°
2026-04-28 20:30 24.00523 -13.18438 35949 ft 453 kts 331°
2026-04-28 20:30 24.06728 -13.20126 35965 ft 468 kts 347°
2026-04-28 20:31 24.13298 -13.20275 35974 ft 474 kts 353°
2026-04-28 20:31 24.19908 -13.20227 35975 ft 475 kts 353°
2026-04-28 20:32 24.26522 -13.20210 35957 ft 475 kts 353°
2026-04-28 20:32 24.33130 -13.20231 35967 ft 475 kts 353°
2026-04-28 20:33 24.39744 -13.20268 35964 ft 475 kts 353°
2026-04-28 20:33 24.46350 -13.20309 35971 ft 476 kts 353°
2026-04-28 20:34 24.52926 -13.20345 35968 ft 476 kts 353°
2026-04-28 20:34 24.59542 -13.20380 35968 ft 476 kts 353°
2026-04-28 20:35 24.66160 -13.20416 35971 ft 476 kts 353°
2026-04-28 20:35 24.72778 -13.20452 35969 ft 475 kts 353°
2026-04-28 20:36 24.79400 -13.20489 35972 ft 476 kts 352°
2026-04-28 20:36 24.86016 -13.20523 35967 ft 475 kts 352°
2026-04-28 20:37 24.92638 -13.20561 35972 ft 476 kts 352°
2026-04-28 20:37 24.99220 -13.20598 35974 ft 476 kts 352°
2026-04-28 20:38 25.05852 -13.20635 36005 ft 476 kts 352°
2026-04-28 20:38 25.12494 -13.20671 35985 ft 477 kts 352°
2026-04-28 20:39 25.19127 -13.20708 35985 ft 476 kts 352°
2026-04-28 20:39 25.25752 -13.20745 35982 ft 476 kts 352°
2026-04-28 20:40 25.32366 -13.20780 35986 ft 475 kts 352°
2026-04-28 20:40 25.38976 -13.20816 35998 ft 475 kts 353°
2026-04-28 20:41 25.45536 -13.20852 35980 ft 474 kts 353°
2026-04-28 20:41 25.52139 -13.20890 35995 ft 474 kts 353°
2026-04-28 20:42 25.58741 -13.20926 35995 ft 474 kts 353°
2026-04-28 20:42 25.65333 -13.20963 35997 ft 474 kts 353°
2026-04-28 20:43 25.71938 -13.21001 36001 ft 475 kts 353°
2026-04-28 20:43 25.78540 -13.21036 35995 ft 474 kts 353°
2026-04-28 20:44 25.85141 -13.21072 35989 ft 474 kts 353°
2026-04-28 20:44 25.91738 -13.21109 35992 ft 474 kts 353°
2026-04-28 20:45 25.98336 -13.21147 36010 ft 474 kts 353°
2026-04-28 20:45 26.04894 -13.21183 35996 ft 474 kts 353°
2026-04-28 20:46 26.11483 -13.21220 35996 ft 473 kts 353°
2026-04-28 20:46 26.17976 -13.21248 35947 ft 457 kts 353°
2026-04-28 20:46 26.21151 -13.21262 35522 ft 454 kts 353°
2026-04-28 20:47 26.24298 -13.21281 35089 ft 449 kts 353°
2026-04-28 20:47 26.27411 -13.21301 34670 ft 446 kts 353°
2026-04-28 20:47 26.30508 -13.21320 34228 ft 443 kts 354°
2026-04-28 20:47 26.33538 -13.21336 33748 ft 440 kts 354°
2026-04-28 20:48 26.36589 -13.21353 33264 ft 436 kts 354°
2026-04-28 20:48 26.39613 -13.21370 32808 ft 433 kts 354°
2026-04-28 20:48 26.42612 -13.21387 32360 ft 429 kts 354°
2026-04-28 20:48 26.45585 -13.21404 31924 ft 425 kts 354°
2026-04-28 20:49 26.48532 -13.21421 31492 ft 422 kts 354°
2026-04-28 20:49 26.51457 -13.21438 31068 ft 419 kts 354°
2026-04-28 20:49 26.54366 -13.21455 30639 ft 416 kts 354°
2026-04-28 20:49 26.57250 -13.21472 30229 ft 414 kts 355°
2026-04-28 20:50 26.60118 -13.21489 29750 ft 411 kts 355°
2026-04-28 20:50 26.62972 -13.21506 29267 ft 408 kts 355°
2026-04-28 20:50 26.65805 -13.21522 28813 ft 405 kts 355°
2026-04-28 20:50 26.68617 -13.21538 28374 ft 402 kts 355°
2026-04-28 20:51 26.71405 -13.21553 27939 ft 399 kts 355°
2026-04-28 20:51 26.74169 -13.21569 27517 ft 395 kts 355°
2026-04-28 20:51 26.76907 -13.21586 27097 ft 392 kts 355°
2026-04-28 20:51 26.78712 -13.21596 26823 ft 390 kts 355°
2026-04-28 20:52 26.82331 -13.21615 26266 ft 387 kts 355°
2026-04-28 20:52 26.85015 -13.21630 25857 ft 385 kts 355°
2026-04-28 20:52 26.87648 -13.21646 25453 ft 382 kts 356°
2026-04-28 20:52 26.90302 -13.21661 25039 ft 381 kts 356°
2026-04-28 20:53 26.95572 -13.21692 24211 ft 378 kts 356°
2026-04-28 20:53 26.98197 -13.21707 23799 ft 376 kts 356°
2026-04-28 20:53 27.00818 -13.21723 23350 ft 375 kts 356°
2026-04-28 20:54 27.03420 -13.21738 22879 ft 373 kts 356°
2026-04-28 20:54 27.06011 -13.21752 22473 ft 371 kts 356°
2026-04-28 20:54 27.08579 -13.21767 22062 ft 368 kts 356°
2026-04-28 20:54 27.11128 -13.21784 21659 ft 362 kts 354°
2026-04-28 20:55 27.13593 -13.22147 21248 ft 354 kts 341°
2026-04-28 20:55 27.15880 -13.23089 20863 ft 347 kts 331°
2026-04-28 20:55 27.17931 -13.24447 20469 ft 340 kts 323°
2026-04-28 20:55 27.19882 -13.25929 20085 ft 337 kts 323°
2026-04-28 20:56 27.21812 -13.27417 19693 ft 336 kts 323°
2026-04-28 20:56 27.23735 -13.28901 19309 ft 335 kts 323°
2026-04-28 20:56 27.25651 -13.30378 18922 ft 333 kts 323°
2026-04-28 20:56 27.27563 -13.31846 18528 ft 333 kts 323°
2026-04-28 20:57 27.29474 -13.33308 18110 ft 332 kts 323°
2026-04-28 20:57 27.31382 -13.34766 17682 ft 331 kts 323°
2026-04-28 20:57 27.33255 -13.36196 17283 ft 329 kts 323°
2026-04-28 20:57 27.35139 -13.37634 16891 ft 326 kts 323°
2026-04-28 20:58 27.37015 -13.39065 16505 ft 324 kts 323°
2026-04-28 20:58 27.38875 -13.40485 16126 ft 322 kts 323°
2026-04-28 20:58 27.40726 -13.41896 15747 ft 321 kts 324°
2026-04-28 20:58 27.42569 -13.43303 15382 ft 319 kts 324°
2026-04-28 20:59 27.44400 -13.44701 15002 ft 318 kts 324°
2026-04-28 20:59 27.46229 -13.46099 14621 ft 317 kts 324°
2026-04-28 20:59 27.48047 -13.47488 14255 ft 316 kts 324°
2026-04-28 20:59 27.49861 -13.48875 13882 ft 315 kts 324°
2026-04-28 21:00 27.51672 -13.50259 13475 ft 314 kts 324°
2026-04-28 21:00 27.53477 -13.51640 13084 ft 312 kts 324°
2026-04-28 21:00 27.55268 -13.53011 12700 ft 311 kts 324°
2026-04-28 21:00 27.57051 -13.54376 12329 ft 309 kts 324°
2026-04-28 21:01 27.58825 -13.55733 11962 ft 307 kts 324°
2026-04-28 21:01 27.60587 -13.57085 11597 ft 305 kts 324°
2026-04-28 21:01 27.62342 -13.58430 11236 ft 304 kts 324°
2026-04-28 21:01 27.64087 -13.59768 10880 ft 303 kts 324°
2026-04-28 21:02 27.65820 -13.61098 10518 ft 301 kts 324°
2026-04-28 21:02 27.67520 -13.62405 10274 ft 296 kts 324°
2026-04-28 21:02 27.69220 -13.63708 10113 ft 287 kts 324°
2026-04-28 21:02 27.70828 -13.64942 9951 ft 281 kts 324°
2026-04-28 21:03 27.72443 -13.66183 9589 ft 280 kts 324°
2026-04-28 21:03 27.74047 -13.67418 9262 ft 278 kts 324°
2026-04-28 21:03 27.75644 -13.68647 8955 ft 277 kts 325°
2026-04-28 21:03 27.77233 -13.69869 8622 ft 276 kts 325°
2026-04-28 21:04 27.78812 -13.71085 8305 ft 274 kts 325°
2026-04-28 21:04 27.80386 -13.72296 7987 ft 273 kts 326°
2026-04-28 21:04 27.81955 -13.73504 7667 ft 272 kts 326°
2026-04-28 21:04 27.83518 -13.74707 7342 ft 272 kts 326°
2026-04-28 21:05 27.85074 -13.75908 7027 ft 271 kts 326°
2026-04-28 21:05 27.86632 -13.77109 6700 ft 270 kts 326°
2026-04-28 21:05 27.87660 -13.77900 6502 ft 270 kts 326°
2026-04-28 21:05 27.89735 -13.79502 6067 ft 269 kts 327°
2026-04-28 21:06 27.90758 -13.80290 5859 ft 269 kts 327°
2026-04-28 21:06 27.92306 -13.81487 5521 ft 268 kts 327°
2026-04-28 21:06 27.93838 -13.82669 5289 ft 264 kts 326°
2026-04-28 21:06 27.95328 -13.83819 5160 ft 255 kts 327°
2026-04-28 21:07 27.96769 -13.84917 5074 ft 242 kts 331°
2026-04-28 21:07 27.98359 -13.85450 5032 ft 242 kts 356°
2026-04-28 21:07 28.00042 -13.85380 5011 ft 242 kts
2026-04-28 21:07 28.01716 -13.85259 4962 ft 242 kts
2026-04-28 21:08 28.03387 -13.85141 4843 ft 239 kts
2026-04-28 21:08 28.05046 -13.85022 4554 ft 238 kts
2026-04-28 21:08 28.06697 -13.84905 4256 ft 237 kts
2026-04-28 21:08 28.08341 -13.84790 3927 ft 237 kts
2026-04-28 21:09 28.09986 -13.84677 3663 ft 236 kts
2026-04-28 21:09 28.11609 -13.84565 3407 ft 232 kts
2026-04-28 21:09 28.13199 -13.84459 3142 ft 230 kts
2026-04-28 21:09 28.14783 -13.84353 2905 ft 226 kts
2026-04-28 21:10 28.16325 -13.84250 2804 ft 218 kts
2026-04-28 21:10 28.17833 -13.84146 2746 ft 215 kts
2026-04-28 21:10 28.19314 -13.84066 2747 ft 213 kts 357°
2026-04-28 21:10 28.20665 -13.84624 2721 ft 209 kts 323°
2026-04-28 21:11 28.21728 -13.85747 2695 ft 206 kts 318°
2026-04-28 21:11 28.22799 -13.86720 2678 ft 189 kts 337°
2026-04-28 21:11 28.24046 -13.87071 2700 ft 183 kts 358°
2026-04-28 21:11 28.25317 -13.87057 2702 ft 183 kts
2026-04-28 21:12 28.26597 -13.87002 2720 ft 185 kts
2026-04-28 21:12 28.27874 -13.86954 2693 ft 183 kts
2026-04-28 21:12 28.29143 -13.86911 2723 ft 182 kts
2026-04-28 21:12 28.30409 -13.86870 2689 ft 182 kts
2026-04-28 21:13 28.31693 -13.86827 2483 ft 188 kts
2026-04-28 21:13 28.32995 -13.86783 2240 ft 184 kts
2026-04-28 21:13 28.34234 -13.86742 2025 ft 171 kts
2026-04-28 21:13 28.35366 -13.86704 1795 ft 157 kts
2026-04-28 21:14 28.36484 -13.86668 1588 ft 158 kts
2026-04-28 21:14 28.37553 -13.86628 1280 ft 149 kts
2026-04-28 21:14 28.38549 -13.86609 1043 ft 139 kts
2026-04-28 21:14 28.39528 -13.86556 890 ft 141 kts
2026-04-28 21:15 28.40502 -13.86542 738 ft 138 kts
2026-04-28 21:15 28.41455 -13.86511 590 ft 138 kts
2026-04-28 21:15 28.42443 -13.86489 424 ft 145 kts
2026-04-28 21:15 28.43467 -13.86439 247 ft 151 kts
2026-04-28 21:16 28.44500 -13.86403 107 ft 143 kts
2026-04-28 21:16 28.45410 -13.86371 90 ft 115 kts
2026-04-28 21:16 28.46058 -13.86353 98 ft 57 kts
2026-04-28 21:16 28.46293 -13.86349 93 ft 21 kts 349°
2026-04-28 21:17 28.46361 -13.86432 97 ft 15 kts 281°
2026-04-28 21:17 28.46339 -13.86506 97 ft 8 kts 224°
2026-04-28 21:17 28.46257 -13.86537 101 ft 16 kts 185°
2026-04-28 21:17 28.46142 -13.86541 104 ft 16 kts 181°
2026-04-28 21:18 28.46024 -13.86544 103 ft 17 kts 181°
2026-04-28 21:18 28.45904 -13.86548 105 ft 17 kts 182°
2026-04-28 21:18 28.45784 -13.86553 102 ft 17 kts 182°
2026-04-28 21:18 28.45661 -13.86560 102 ft 13 kts 192°
2026-04-28 21:19 28.45618 -13.86646 105 ft 13 kts 265°
2026-04-28 21:19 28.45617 -13.86652 103 ft 0 kts 265°